����������;��������(kVARh)
2018-11-19 00:00;0,1
2018-11-19 00:15;0,8
2018-11-19 00:30;1,2
2018-11-19 00:45;0,8
2018-11-19 01:00;2,1
2018-11-19 01:15;1,35
2018-11-19 01:30;2,05
2018-11-19 01:45;2,05
2018-11-19 02:00;1,65
2018-11-19 02:15;6,25
2018-11-19 02:30;6,65
2018-11-19 02:45;8,55
2018-11-19 03:00;13,8
2018-11-19 03:15;16,65
2018-11-19 03:30;17,45
2018-11-19 03:45;16,65
2018-11-19 04:00;17,3
2018-11-19 04:15;16,55
2018-11-19 04:30;16,3
2018-11-19 04:45;10,7
2018-11-19 05:00;10,35
2018-11-19 05:15;9,3
2018-11-19 05:30;18,25
2018-11-19 05:45;28,05
2018-11-19 06:00;27,1
2018-11-19 06:15;22,95
2018-11-19 06:30;17,95
2018-11-19 06:45;13,5
2018-11-19 07:00;11,3
2018-11-19 07:15;15,55
2018-11-19 07:30;14,2
2018-11-19 07:45;39,95
2018-11-19 08:00;46,55
2018-11-19 08:15;29,9
2018-11-19 08:30;26,4
2018-11-19 08:45;28
2018-11-19 09:00;27,95
2018-11-19 09:15;40,1
2018-11-19 09:30;35,55
2018-11-19 09:45;38,3
2018-11-19 10:00;38,8
2018-11-19 10:15;41,35
2018-11-19 10:30;40,7
2018-11-19 10:45;43,25
2018-11-19 11:00;42,4
2018-11-19 11:15;46,8
2018-11-19 11:30;36,4
2018-11-19 11:45;42,5
2018-11-19 12:00;38,1
2018-11-19 12:15;49,95
2018-11-19 12:30;40,05
2018-11-19 12:45;44,6
2018-11-19 13:00;37,6
2018-11-19 13:15;44,2
2018-11-19 13:30;43,1
2018-11-19 13:45;38,4
2018-11-19 14:00;43,9
2018-11-19 14:15;38,4
2018-11-19 14:30;48,4
2018-11-19 14:45;39,5
2018-11-19 15:00;46,15
2018-11-19 15:15;40,1
2018-11-19 15:30;46,65
2018-11-19 15:45;39,5
2018-11-19 16:00;35,7
2018-11-19 16:15;34,95
2018-11-19 16:30;37,1
2018-11-19 16:45;42,1
2018-11-19 17:00;39,4
2018-11-19 17:15;33,65
2018-11-19 17:30;30,25
2018-11-19 17:45;29,45
2018-11-19 18:00;31,6
2018-11-19 18:15;30,6
2018-11-19 18:30;27
2018-11-19 18:45;29,7
2018-11-19 19:00;33,35
2018-11-19 19:15;28,65
2018-11-19 19:30;26,3
2018-11-19 19:45;24,75
2018-11-19 20:00;20,25
2018-11-19 20:15;19,65
2018-11-19 20:30;15,35
2018-11-19 20:45;14,9
2018-11-19 21:00;15
2018-11-19 21:15;14,75
2018-11-19 21:30;13,3
2018-11-19 21:45;7,3
2018-11-19 22:00;3,85
2018-11-19 22:15;3,3
2018-11-19 22:30;3,85
2018-11-19 22:45;6,05
2018-11-19 23:00;4,8
2018-11-19 23:15;4,4
2018-11-19 23:30;1
2018-11-19 23:45;2,7
2018-11-20 00:00;1,4
2018-11-20 00:15;1,7
2018-11-20 00:30;2,65
2018-11-20 00:45;3,65
2018-11-20 01:00;4,6
2018-11-20 01:15;4,2
2018-11-20 01:30;2,6
2018-11-20 01:45;3,9
2018-11-20 02:00;4,3
2018-11-20 02:15;5
2018-11-20 02:30;3,6
2018-11-20 02:45;3,7
2018-11-20 03:00;3,55
2018-11-20 03:15;5,25
2018-11-20 03:30;11,7
2018-11-20 03:45;16,15
2018-11-20 04:00;16,55
2018-11-20 04:15;16,1
2018-11-20 04:30;17,3
2018-11-20 04:45;14,75
2018-11-20 05:00;10,4
2018-11-20 05:15;9,05
2018-11-20 05:30;11,2
2018-11-20 05:45;17,65
2018-11-20 06:00;27,35
2018-11-20 06:15;25,15
2018-11-20 06:30;21,3
2018-11-20 06:45;15,65
2018-11-20 07:00;13,4
2018-11-20 07:15;18,7
2018-11-20 07:30;19,7
2018-11-20 07:45;46,4
2018-11-20 08:00;46,4
2018-11-20 08:15;16,2
2018-11-20 08:30;22,5
2018-11-20 08:45;25,95
2018-11-20 09:00;29,15
2018-11-20 09:15;39,2
2018-11-20 09:30;36,2
2018-11-20 09:45;43,4
2018-11-20 10:00;40,85
2018-11-20 10:15;49,05
2018-11-20 10:30;38,3
2018-11-20 10:45;46,2
2018-11-20 11:00;42
2018-11-20 11:15;56,9
2018-11-20 11:30;47
2018-11-20 11:45;58,95
2018-11-20 12:00;55,55
2018-11-20 12:15;52,45
2018-11-20 12:30;52,4
2018-11-20 12:45;47,4
2018-11-20 13:00;54,4
2018-11-20 13:15;43
2018-11-20 13:30;51,15
2018-11-20 13:45;45,7
2018-11-20 14:00;51,2
2018-11-20 14:15;50,05
2018-11-20 14:30;42,95
2018-11-20 14:45;45,55
2018-11-20 15:00;43,15
2018-11-20 15:15;37,95
2018-11-20 15:30;47,35
2018-11-20 15:45;45,75
2018-11-20 16:00;46,45
2018-11-20 16:15;42,75
2018-11-20 16:30;42,6
2018-11-20 16:45;43,3
2018-11-20 17:00;43,05
2018-11-20 17:15;34,95
2018-11-20 17:30;28,45
2018-11-20 17:45;25,95
2018-11-20 18:00;22,15
2018-11-20 18:15;20,1
2018-11-20 18:30;20,55
2018-11-20 18:45;21,05
2018-11-20 19:00;20,05
2018-11-20 19:15;19,95
2018-11-20 19:30;23,55
2018-11-20 19:45;24,85
2018-11-20 20:00;23,7
2018-11-20 20:15;23,75
2018-11-20 20:30;24,25
2018-11-20 20:45;23,55
2018-11-20 21:00;22,65
2018-11-20 21:15;24,1
2018-11-20 21:30;21,75
2018-11-20 21:45;13,85
2018-11-20 22:00;16,1
2018-11-20 22:15;19,9
2018-11-20 22:30;23,6
2018-11-20 22:45;24,8
2018-11-20 23:00;20,65
2018-11-20 23:15;12,45
2018-11-20 23:30;9,35
2018-11-20 23:45;6,75
2018-11-21 00:00;6,45
2018-11-21 00:15;6,6
2018-11-21 00:30;7,15
2018-11-21 00:45;4,9
2018-11-21 01:00;10,4
2018-11-21 01:15;15,9
2018-11-21 01:30;15,8
2018-11-21 01:45;15,85
2018-11-21 02:00;14,45
2018-11-21 02:15;10,25
2018-11-21 02:30;11,3
2018-11-21 02:45;14,15
2018-11-21 03:00;9,25
2018-11-21 03:15;8,65
2018-11-21 03:30;9,05
2018-11-21 03:45;9
2018-11-21 04:00;10,1
2018-11-21 04:15;8,15
2018-11-21 04:30;10,7
2018-11-21 04:45;12,05
2018-11-21 05:00;13,25
2018-11-21 05:15;10,3
2018-11-21 05:30;9,6
2018-11-21 05:45;9,5
2018-11-21 06:00;10,5
2018-11-21 06:15;28,6
2018-11-21 06:30;37,1
2018-11-21 06:45;31,55
2018-11-21 07:00;22,35
2018-11-21 07:15;18,05
2018-11-21 07:30;21,7
2018-11-21 07:45;21,9
2018-11-21 08:00;20,55
2018-11-21 08:15;21,85
2018-11-21 08:30;21,35
2018-11-21 08:45;20,8
2018-11-21 09:00;18
2018-11-21 09:15;22
2018-11-21 09:30;20,2
2018-11-21 09:45;19,75
2018-11-21 10:00;17,7
2018-11-21 10:15;21,65
2018-11-21 10:30;18,5
2018-11-21 10:45;21,55
2018-11-21 11:00;22,4
2018-11-21 11:15;27,1
2018-11-21 11:30;23,5
2018-11-21 11:45;22,6
2018-11-21 12:00;21,5
2018-11-21 12:15;22,1
2018-11-21 12:30;18,95
2018-11-21 12:45;19,5
2018-11-21 13:00;17,2
2018-11-21 13:15;18,55
2018-11-21 13:30;17,35
2018-11-21 13:45;20
2018-11-21 14:00;16,6
2018-11-21 14:15;16,6
2018-11-21 14:30;18,6
2018-11-21 14:45;15,7
2018-11-21 15:00;15,45
2018-11-21 15:15;15,2
2018-11-21 15:30;17,05
2018-11-21 15:45;18
2018-11-21 16:00;15,05
2018-11-21 16:15;14,35
2018-11-21 16:30;14,5
2018-11-21 16:45;14,2
2018-11-21 17:00;14,1
2018-11-21 17:15;11,75
2018-11-21 17:30;9,1
2018-11-21 17:45;12,85
2018-11-21 18:00;23,55
2018-11-21 18:15;23,05
2018-11-21 18:30;25,25
2018-11-21 18:45;19,15
2018-11-21 19:00;18,5
2018-11-21 19:15;15,7
2018-11-21 19:30;16,4
2018-11-21 19:45;17,05
2018-11-21 20:00;14,2
2018-11-21 20:15;12,45
2018-11-21 20:30;9,75
2018-11-21 20:45;5,55
2018-11-21 21:00;5,05
2018-11-21 21:15;4,75
2018-11-21 21:30;3,6
2018-11-21 21:45;2,25
2018-11-21 22:00;1,25
2018-11-21 22:15;2,45
2018-11-21 22:30;3
2018-11-21 22:45;2,45
2018-11-21 23:00;1,75
2018-11-21 23:15;0
2018-11-21 23:30;0
2018-11-21 23:45;0,25
2018-11-22 00:00;0
2018-11-22 00:15;0,05
2018-11-22 00:30;0,05
2018-11-22 00:45;0
2018-11-22 01:00;0,4
2018-11-22 01:15;0,8
2018-11-22 01:30;1,25
2018-11-22 01:45;11,6
2018-11-22 02:00;13,05
2018-11-22 02:15;12,15
2018-11-22 02:30;14,15
2018-11-22 02:45;14,6
2018-11-22 03:00;10,5
2018-11-22 03:15;9,8
2018-11-22 03:30;10,2
2018-11-22 03:45;9,4
2018-11-22 04:00;9,05
2018-11-22 04:15;9,3
2018-11-22 04:30;9,55
2018-11-22 04:45;12
2018-11-22 05:00;10,55
2018-11-22 05:15;8,9
2018-11-22 05:30;11
2018-11-22 05:45;11,35
2018-11-22 06:00;9,4
2018-11-22 06:15;8,3
2018-11-22 06:30;7
2018-11-22 06:45;17,05
2018-11-22 07:00;26,7
2018-11-22 07:15;26,65
2018-11-22 07:30;24,1
2018-11-22 07:45;22,1
2018-11-22 08:00;18,9
2018-11-22 08:15;17,3
2018-11-22 08:30;20,75
2018-11-22 08:45;23,15
2018-11-22 09:00;23,4
2018-11-22 09:15;25,15
2018-11-22 09:30;25,65
2018-11-22 09:45;25,2
2018-11-22 10:00;26
2018-11-22 10:15;25,65
2018-11-22 10:30;24
2018-11-22 10:45;29,45
2018-11-22 11:00;28,4
2018-11-22 11:15;37
2018-11-22 11:30;46,7
2018-11-22 11:45;66,7
2018-11-22 12:00;67,05
2018-11-22 12:15;36,9
2018-11-22 12:30;43,65
2018-11-22 12:45;38,3
2018-11-22 13:00;43,5
2018-11-22 13:15;38,8
2018-11-22 13:30;42,4
2018-11-22 13:45;42,6
2018-11-22 14:00;49,6
2018-11-22 14:15;43,2
2018-11-22 14:30;42,8
2018-11-22 14:45;43,7
2018-11-22 15:00;40,7
2018-11-22 15:15;41,2
2018-11-22 15:30;36,2
2018-11-22 15:45;34,2
2018-11-22 16:00;35,25
2018-11-22 16:15;36,4
2018-11-22 16:30;32,2
2018-11-22 16:45;27,9
2018-11-22 17:00;29,4
2018-11-22 17:15;32,8
2018-11-22 17:30;29,05
2018-11-22 17:45;29,4
2018-11-22 18:00;33,4
2018-11-22 18:15;33,9
2018-11-22 18:30;31,8
2018-11-22 18:45;30,7
2018-11-22 19:00;29,7
2018-11-22 19:15;28,6
2018-11-22 19:30;26,2
2018-11-22 19:45;21,9
2018-11-22 20:00;21,1
2018-11-22 20:15;19,7
2018-11-22 20:30;14,6
2018-11-22 20:45;15,65
2018-11-22 21:00;16,7
2018-11-22 21:15;16,65
2018-11-22 21:30;16,4
2018-11-22 21:45;18,15
2018-11-22 22:00;16,1
2018-11-22 22:15;2,6
2018-11-22 22:30;3,35
2018-11-22 22:45;4,5
2018-11-22 23:00;4,4
2018-11-22 23:15;4,15
2018-11-22 23:30;3,7
2018-11-22 23:45;4,65
2018-11-23 00:00;4,95
2018-11-23 00:15;6,05
2018-11-23 00:30;2,55
2018-11-23 00:45;3,7
2018-11-23 01:00;3,45
2018-11-23 01:15;2,95
2018-11-23 01:30;4,3
2018-11-23 01:45;12,7
2018-11-23 02:00;16,4
2018-11-23 02:15;18,15
2018-11-23 02:30;17,35
2018-11-23 02:45;17,55
2018-11-23 03:00;12,4
2018-11-23 03:15;8,05
2018-11-23 03:30;10,6
2018-11-23 03:45;25,25
2018-11-23 04:00;28,75
2018-11-23 04:15;25,2
2018-11-23 04:30;21,45
2018-11-23 04:45;15,9
2018-11-23 05:00;17,85
2018-11-23 05:15;16,05
2018-11-23 05:30;14,1
2018-11-23 05:45;16,75
2018-11-23 06:00;14,75
2018-11-23 06:15;12,5
2018-11-23 06:30;13,4
2018-11-23 06:45;13,8
2018-11-23 07:00;11,65
2018-11-23 07:15;12,35
2018-11-23 07:30;19,6
2018-11-23 07:45;45,85
2018-11-23 08:00;12,7
2018-11-23 08:15;22,45
2018-11-23 08:30;20,65
2018-11-23 08:45;26,05
2018-11-23 09:00;27,85
2018-11-23 09:15;31,2
2018-11-23 09:30;37,2
2018-11-23 09:45;37,85
2018-11-23 10:00;44,9
2018-11-23 10:15;33,9
2018-11-23 10:30;35,35
2018-11-23 10:45;44,1
2018-11-23 11:00;43,15
2018-11-23 11:15;49,4
2018-11-23 11:30;44,5
2018-11-23 11:45;49,1
2018-11-23 12:00;46,3
2018-11-23 12:15;49,7
2018-11-23 12:30;54
2018-11-23 12:45;47,15
2018-11-23 13:00;51,45
2018-11-23 13:15;47,15
2018-11-23 13:30;44,95
2018-11-23 13:45;52,05
2018-11-23 14:00;43
2018-11-23 14:15;49,3
2018-11-23 14:30;46
2018-11-23 14:45;48,8
2018-11-23 15:00;42,1
2018-11-23 15:15;39,25
2018-11-23 15:30;43,85
2018-11-23 15:45;45,35
2018-11-23 16:00;42,4
2018-11-23 16:15;40,85
2018-11-23 16:30;39,1
2018-11-23 16:45;36,3
2018-11-23 17:00;38
2018-11-23 17:15;35,7
2018-11-23 17:30;33,65
2018-11-23 17:45;31,1
2018-11-23 18:00;29,95
2018-11-23 18:15;26,7
2018-11-23 18:30;26,05
2018-11-23 18:45;26,55
2018-11-23 19:00;24,55
2018-11-23 19:15;22,7
2018-11-23 19:30;21,05
2018-11-23 19:45;16,35
2018-11-23 20:00;17,3
2018-11-23 20:15;15,9
2018-11-23 20:30;14,8
2018-11-23 20:45;15,35
2018-11-23 21:00;16,2
2018-11-23 21:15;16,05
2018-11-23 21:30;16,45
2018-11-23 21:45;5,8
2018-11-23 22:00;4,9
2018-11-23 22:15;3,8
2018-11-23 22:30;5,1
2018-11-23 22:45;3,9
2018-11-23 23:00;5,35
2018-11-23 23:15;5,05
2018-11-23 23:30;5,55
2018-11-23 23:45;3
2018-11-24 00:00;0
2018-11-24 00:15;0
2018-11-24 00:30;0,05
2018-11-24 00:45;0
2018-11-24 01:00;0
2018-11-24 01:15;0
2018-11-24 01:30;0
2018-11-24 01:45;0,15
2018-11-24 02:00;0,05
2018-11-24 02:15;0,05
2018-11-24 02:30;1,8
2018-11-24 02:45;2,6
2018-11-24 03:00;3,35
2018-11-24 03:15;4,15
2018-11-24 03:30;4,75
2018-11-24 03:45;4,6
2018-11-24 04:00;5,4
2018-11-24 04:15;4,05
2018-11-24 04:30;5,05
2018-11-24 04:45;3,7
2018-11-24 05:00;3,75
2018-11-24 05:15;3,05
2018-11-24 05:30;3,55
2018-11-24 05:45;3,8
2018-11-24 06:00;4
2018-11-24 06:15;2,05
2018-11-24 06:30;1,95
2018-11-24 06:45;1,4
2018-11-24 07:00;2,05
2018-11-24 07:15;1,95
2018-11-24 07:30;1,7
2018-11-24 07:45;1,7
2018-11-24 08:00;1,75
2018-11-24 08:15;0,6
2018-11-24 08:30;5,3
2018-11-24 08:45;4
2018-11-24 09:00;3,4
2018-11-24 09:15;1,8
2018-11-24 09:30;0,35
2018-11-24 09:45;0,5
2018-11-24 10:00;0,05
2018-11-24 10:15;0,35
2018-11-24 10:30;1,1
2018-11-24 10:45;0,2
2018-11-24 11:00;0,8
2018-11-24 11:15;1,3
2018-11-24 11:30;1,7
2018-11-24 11:45;1
2018-11-24 12:00;0,5
2018-11-24 12:15;1
2018-11-24 12:30;0,25
2018-11-24 12:45;0,1
2018-11-24 13:00;0,15
2018-11-24 13:15;0,55
2018-11-24 13:30;0,05
2018-11-24 13:45;0
2018-11-24 14:00;0,35
2018-11-24 14:15;0,05
2018-11-24 14:30;0,9
2018-11-24 14:45;0,3
2018-11-24 15:00;0,6
2018-11-24 15:15;2,05
2018-11-24 15:30;3,45
2018-11-24 15:45;2,4
2018-11-24 16:00;1,75
2018-11-24 16:15;1,35
2018-11-24 16:30;0,85
2018-11-24 16:45;0,7
2018-11-24 17:00;0,45
2018-11-24 17:15;0,55
2018-11-24 17:30;0,05
2018-11-24 17:45;0
2018-11-24 18:00;0,05
2018-11-24 18:15;0
2018-11-24 18:30;1,25
2018-11-24 18:45;2,3
2018-11-24 19:00;3,1
2018-11-24 19:15;3,2
2018-11-24 19:30;2,95
2018-11-24 19:45;3,05
2018-11-24 20:00;4,65
2018-11-24 20:15;4,05
2018-11-24 20:30;3,8
2018-11-24 20:45;5,3
2018-11-24 21:00;4,45
2018-11-24 21:15;5,35
2018-11-24 21:30;5,9
2018-11-24 21:45;2,55
2018-11-24 22:00;2,9
2018-11-24 22:15;2,3
2018-11-24 22:30;2,2
2018-11-24 22:45;0,1
2018-11-24 23:00;0
2018-11-24 23:15;0
2018-11-24 23:30;0
2018-11-24 23:45;0
2018-11-25 00:00;0
2018-11-25 00:15;0
2018-11-25 00:30;0
2018-11-25 00:45;0
2018-11-25 01:00;0,05
2018-11-25 01:15;0,05
2018-11-25 01:30;0,65
2018-11-25 01:45;0,6
2018-11-25 02:00;0,5
2018-11-25 02:15;0,3
2018-11-25 02:30;0,5
2018-11-25 02:45;1,3
2018-11-25 03:00;2,3
2018-11-25 03:15;3,1
2018-11-25 03:30;2,5
2018-11-25 03:45;2,65
2018-11-25 04:00;1,7
2018-11-25 04:15;1,55
2018-11-25 04:30;1,25
2018-11-25 04:45;1,15
2018-11-25 05:00;0,75
2018-11-25 05:15;0,55
2018-11-25 05:30;0,9
2018-11-25 05:45;1,55
2018-11-25 06:00;0,6
2018-11-25 06:15;0,25
2018-11-25 06:30;0,45
2018-11-25 06:45;0,05
2018-11-25 07:00;0,1
2018-11-25 07:15;0,75
2018-11-25 07:30;0,35
2018-11-25 07:45;0,65
2018-11-25 08:00;0,4
2018-11-25 08:15;0,25
2018-11-25 08:30;0,05
2018-11-25 08:45;0,15
2018-11-25 09:00;0
2018-11-25 09:15;0
2018-11-25 09:30;0
2018-11-25 09:45;0
2018-11-25 10:00;0
2018-11-25 10:15;0,05
2018-11-25 10:30;1,1
2018-11-25 10:45;0,05
2018-11-25 11:00;0,2
2018-11-25 11:15;0,15
2018-11-25 11:30;0
2018-11-25 11:45;0,15
2018-11-25 12:00;0
2018-11-25 12:15;0,2
2018-11-25 12:30;0,5
2018-11-25 12:45;0,9
2018-11-25 13:00;0,3
2018-11-25 13:15;0,25
2018-11-25 13:30;0
2018-11-25 13:45;0,3
2018-11-25 14:00;0,15
2018-11-25 14:15;1,6
2018-11-25 14:30;2,75
2018-11-25 14:45;3,55
2018-11-25 15:00;4,25
2018-11-25 15:15;5,1
2018-11-25 15:30;4,65
2018-11-25 15:45;4,35
2018-11-25 16:00;4,3
2018-11-25 16:15;3,05
2018-11-25 16:30;2,7
2018-11-25 16:45;3,45
2018-11-25 17:00;2,9
2018-11-25 17:15;2,6
2018-11-25 17:30;0,35
2018-11-25 17:45;1
2018-11-25 18:00;1,75
2018-11-25 18:15;2,7
2018-11-25 18:30;4,2
2018-11-25 18:45;3,95
2018-11-25 19:00;4,1
2018-11-25 19:15;3,3
2018-11-25 19:30;1,9
2018-11-25 19:45;2,15
2018-11-25 20:00;1,4
2018-11-25 20:15;2,05
2018-11-25 20:30;1,35
2018-11-25 20:45;1,05
2018-11-25 21:00;1,45
2018-11-25 21:15;0,65
2018-11-25 21:30;0,5
2018-11-25 21:45;1,3
2018-11-25 22:00;0,75
2018-11-25 22:15;0,35
2018-11-25 22:30;1,1
2018-11-25 22:45;1,2
2018-11-25 23:00;1,9
2018-11-25 23:15;2,4
2018-11-25 23:30;1,6
2018-11-25 23:45;0,7

